Temperature
20 20 20 20 18 17 18 19 19 18 18 18 18 18 17 17 17 17 16 17 17 17 17 17 17 17 17 17 17 17 17 17 17 17 17 17 17 17 17 17 17 17 17 17 17 17 17 17 17
20 20 20 20 17 18 18 18 18 18 18 18 18 18 17 16 16 17 16 17 17 17 17 17 17 17 17 17 17 17 17 17 17 16 16 16 16 16 16 16 16 17 17 17 17 17 17 17 17
20 20 20 17 18 18 19 18 18 18 19 19 18 17 17 16 17 17 17 17 17 17 17 17 17 17 17 17 17 17 16 16 16 16 16 16 16 16 16 16 16 16 16 16 17 17 17 17 17
20 20 20 17 18 18 18 18 18 19 19 18 18 17 17 17 17 17 17 17 17 17 17 17 17 17 17 17 17 16 16 16 16 16 16 16 16 16 16 16 16 16 16 16 16 16 16 16 17
21 20 17 18 18 18 18 18 19 18 18 18 17 17 16 17 17 17 17 17 17 17 17 17 16 16 16 16 16 16 16 16 16 16 16 16 16 16 15 15 16 16 16 16 16 16 16 16 16
21 18 17 18 18 18 18 18 18 18 18 18 17 16 16 17 17 17 17 17 17 17 17 16 16 16 16 16 16 16 16 16 16 16 16 15 15 15 15 15 15 15 16 16 16 16 16 16 16
19 16 17 18 18 18 18 18 18 18 18 18 18 16 16 17 17 17 17 17 17 17 16 16 16 16 16 16 16 15 15 15 15 15 15 15 15 15 15 15 15 15 15 15 16 16 16 16 16
20 16 17 17 18 18 18 18 18 18 18 18 18 17 17 17 17 17 17 17 17 17 16 16 16 16 16 16 16 16 15 15 15 15 15 15 15 15 15 15 15 15 15 15 15 15 16 16 16
20 16 17 18 18 18 18 18 18 18 18 18 18 18 17 17 17 17 17 17 17 17 16 16 16 16 16 16 16 16 16 16 15 15 15 15 15 15 15 15 15 15 15 15 15 15 15 16 16
19 17 18 18 18 18 18 18 18 18 18 17 17 17 17 17 17 17 17 17 17 17 17 16 16 16 16 16 16 16 16 16 16 15 15 15 15 15 15 15 15 15 15 15 15 15 15 15 16
18 17 18 18 19 19 18 18 18 18 17 17 17 17 17 17 17 17 17 17 17 17 17 17 16 16 16 16 16 16 16 16 16 15 15 15 15 15 15 15 15 15 15 15 15 15 15 15 15
18 18 18 18 19 19 18 18 18 18 18 18 18 18 17 17 18 18 18 17 17 17 17 17 17 16 16 16 16 16 16 16 16 15 15 15 16 16 16 16 16 15 15 15 15 15 15 15 15
18 18 18 19 19 19 19 18 18 18 18 18 18 18 18 18 18 18 18 18 17 17 17 17 17 17 16 16 16 16 16 16 16 15 15 16 16 16 16 16 15 15 15 15 15 15 15 15 15
18 18 18 18 19 19 18 18 18 18 18 18 18 18 18 18 18 18 18 18 18 18 17 17 17 17 16 16 16 16 16 16 16 16 15 16 16 16 15 15 15 15 15 15 15 15 15 15 15
18 18 18 18 18 18 19 18 17 18 18 18 18 18 18 18 18 18 18 18 18 18 17 17 17 17 16 16 16 16 16 16 16 16 15 15 15 15 15 15 15 15 15 15 15 15 15 15 15
18 17 17 18 18 18 18 17 18 18 18 18 18 18 18 18 18 18 18 18 18 18 18 17 17 17 17 16 16 16 16 16 16 15 15 15 15 15 15 15 15 15 15 15 15 15 15 15 15
16 16 17 18 18 18 18 17 17 18 18 18 18 18 18 18 18 18 18 18 18 18 18 17 17 17 17 16 16 16 16 16 15 15 15 15 15 15 15 15 15 15 15 15 15 15 15 15 15
16 17 17 17 18 18 17 17 17 18 18 18 18 18 18 18 19 19 18 18 18 18 18 18 17 17 17 17 16 16 16 16 15 15 15 15 15 15 15 15 15 15 15 15 15 15 15 15 15
17 17 17 17 18 18 17 17 17 17 17 17 18 18 18 19 19 19 19 18 18 18 18 18 17 17 17 17 16 16 16 16 15 15 15 15 15 15 15 15 15 15 15 15 15 15 14 14 14
17 17 17 17 18 18 17 17 17 17 17 18 18 18 19 19 19 19 19 19 18 18 18 18 17 17 17 17 16 16 16 16 15 15 15 15 15 15 15 15 15 15 15 15 15 15 14 14 14
17 17 17 17 18 18 18 17 17 17 18 18 18 19 19 19 19 19 19 19 19 18 18 18 18 17 17 17 16 16 16 16 15 15 15 15 15 15 15 15 15 15 15 15 14 14 14 14 14
17 18 18 18 17 16 17 16 17 17 17 17 18 18 19 19 19 19 19 19 19 19 18 18 18 17 17 17 17 16 16 16 16 15 15 15 15 15 15 15 15 15 14 14 14 14 14 14 14
18 18 18 18 17 16 17 16 16 16 17 17 17 18 19 20 20 20 20 19 19 19 18 18 18 18 17 17 17 17 16 16 16 15 15 15 15 15 15 15 14 14 14 14 14 14 14 14 14
18 17 17 16 16 17 17 16 16 16 17 17 18 19 20 20 20 20 20 19 19 19 19 18 18 18 17 17 17 17 16 16 16 16 15 15 15 15 15 14 14 14 14 14 14 14 14 13 13
18 17 16 16 16 16 17 17 17 18 17 18 18 19 20 20 20 20 20 20 19 19 19 18 18 18 18 17 17 17 16 16 16 16 15 15 15 15 15 14 14 14 14 14 14 14 13 13 13
17 17 16 17 16 16 17 16 17 19 19 19 20 20 20 21 20 20 20 20 20 20 19 19 18 18 18 17 17 17 17 16 16 16 15 15 15 15 15 14 14 14 14 14 14 13 13 13 13
17 16 16 16 17 16 16 17 18 19 18 19 19 20 20 21 21 21 20 20 20 20 19 19 19 18 18 18 17 17 17 16 16 16 15 15 15 15 15 14 14 14 14 14 13 13 13 13 13
17 16 15 16 17 17 17 17 17 19 19 18 18 19 20 21 21 21 21 21 20 20 20 19 19 18 18 18 17 17 17 16 16 16 15 15 15 15 15 14 14 14 14 13 13 13 13 13 13
17 17 16 15 16 16 17 17 18 18 18 18 18 20 21 21 21 21 21 21 20 20 20 19 19 18 18 18 17 17 17 17 16 16 15 15 15 15 15 14 14 14 14 13 13 13 13 13 13
18 18 16 17 16 15 16 17 19 18 18 18 19 20 21 21 21 21 21 21 20 20 20 19 19 18 18 18 17 17 17 17 16 16 15 15 15 15 14 14 14 14 13 13 13 13 13 13 12
Wind_Speed
5 3 3 3 5 5 3 2 2 4 4 4 6 7 8 5 4 5 0 2 5 4 6 9 11 12 12 12 13 13 12 12 12 12 12 12 11 11 11 10 10 10 10 9 9 9 9 8 8
2 1 4 4 5 4 2 2 4 4 6 6 6 6 7 6 4 4 2 3 5 6 7 9 12 12 12 12 12 12 12 12 12 12 12 11 11 11 10 10 10 9 9 9 9 9 9 8 8
1 3 4 4 4 4 3 2 6 6 5 4 5 5 5 4 3 2 3 5 6 6 7 9 11 11 12 12 12 12 12 11 11 11 11 11 10 10 10 9 9 8 8 8 8 9 9 9 8
3 4 5 5 5 1 3 5 7 7 5 6 5 6 4 3 2 4 6 7 7 5 7 8 11 11 11 11 11 11 11 11 10 10 10 10 10 10 9 8 8 7 7 8 8 8 8 8 8
4 4 5 5 4 3 3 3 3 5 4 5 5 6 4 4 6 7 7 7 6 4 6 7 10 11 11 11 10 10 10 10 9 9 9 9 9 9 8 8 8 7 7 8 8 8 9 9 8
4 5 5 3 3 3 3 3 4 7 6 6 6 5 3 2 6 6 6 6 5 5 5 7 9 10 10 10 10 9 9 8 8 8 7 7 7 7 8 7 8 7 7 7 7 8 8 9 9
4 4 4 5 4 3 2 3 4 6 7 4 5 5 3 2 4 6 6 6 5 6 6 6 7 7 8 8 8 8 7 7 7 7 7 7 7 8 8 8 8 8 7 7 7 7 8 8 8
4 5 4 3 5 3 2 3 4 6 5 4 4 6 5 4 6 7 7 6 5 5 5 5 5 6 7 7 7 7 7 7 7 7 7 8 9 9 9 8 8 8 8 8 8 8 8 8 9
3 5 3 4 5 4 3 4 3 4 6 4 4 4 6 9 9 8 6 4 3 3 2 3 3 5 5 6 6 7 8 8 9 9 9 9 9 9 8 9 8 8 9 9 9 9 9 9 9
5 4 3 3 5 6 5 5 5 5 5 5 7 8 9 9 9 8 6 4 3 1 0 1 1 3 4 5 6 7 7 8 8 8 8 8 8 8 8 10 10 10 10 10 10 10 10 9 9
4 4 3 3 4 6 6 4 3 8 5 6 11 11 10 9 7 7 5 5 4 2 1 1 1 2 3 4 5 6 6 7 8 8 8 8 8 9 10 10 10 11 10 10 9 9 9 9 7
4 3 3 3 5 5 5 5 5 4 4 7 10 11 9 9 7 7 6 5 4 3 2 1 2 3 3 4 4 5 5 6 6 7 7 7 6 6 7 7 8 9 8 8 8 7 8 8 8
5 3 4 6 8 7 8 7 6 5 7 10 10 10 9 8 6 4 5 5 5 4 2 2 3 3 3 4 3 5 5 5 5 6 7 7 5 4 5 6 7 8 8 7 6 6 6 6 7
4 6 7 7 8 5 8 5 5 5 8 10 10 9 8 7 6 5 4 4 4 4 4 2 3 3 4 3 3 4 5 6 7 7 7 7 7 5 5 5 6 7 7 7 6 6 5 4 5
6 8 8 6 5 3 7 6 3 5 9 9 8 6 5 4 5 5 5 5 5 5 4 4 4 4 4 4 4 5 6 7 7 7 8 8 8 7 6 4 5 6 7 8 7 7 6 5 5
5 5 4 2 3 2 6 4 2 5 8 7 6 5 4 4 4 4 4 5 5 5 4 4 5 5 5 4 5 5 7 7 7 7 8 9 9 8 7 5 4 7 8 7 4 4 5 5 5
4 4 3 1 2 3 4 4 3 5 8 7 6 6 6 4 4 4 5 5 6 6 5 5 5 6 5 5 6 6 7 7 7 7 8 8 9 9 8 5 5 7 7 5 4 5 4 4 4
4 4 3 2 0 4 4 3 3 5 7 7 6 6 6 7 7 5 5 5 6 5 5 6 6 5 5 5 4 4 5 5 7 7 7 8 8 9 8 6 7 7 5 5 4 5 5 4 3
5 6 5 1 1 4 4 3 3 5 6 7 6 7 7 8 5 4 5 5 6 5 5 5 6 5 5 3 3 3 2 2 3 5 8 8 8 8 8 6 6 6 5 4 4 3 5 5 4
6 6 3 2 2 3 2 1 3 5 7 8 10 10 10 7 5 5 5 5 6 6 6 5 6 5 4 3 3 3 3 2 1 3 6 8 7 7 6 6 4 5 4 6 6 4 3 4 5
3 4 4 3 3 3 3 3 2 3 4 6 7 8 8 10 10 8 7 7 6 7 7 7 6 5 4 4 4 4 3 3 3 3 3 5 7 7 7 6 5 5 4 4 5 4 4 3 4
1 2 5 5 4 0 2 1 5 4 4 7 9 9 9 9 8 8 8 8 8 8 6 6 6 5 5 5 5 5 3 2 1 0 1 3 6 7 7 6 6 5 4 4 4 4 3 3 2
3 3 4 3 4 2 1 2 6 2 6 9 10 11 10 9 10 10 10 10 8 7 7 6 6 5 5 5 6 6 4 2 1 1 2 3 4 6 6 6 5 5 4 4 4 5 5 3 2
5 6 6 5 4 0 3 3 5 5 9 8 9 10 11 10 9 9 8 7 7 6 6 6 6 5 5 5 5 6 6 5 3 2 1 2 2 3 5 5 5 5 4 4 4 4 5 4 3
4 5 3 3 2 3 3 3 8 8 8 11 11 11 11 10 10 9 9 9 9 9 8 7 8 6 6 6 5 6 6 6 5 3 2 1 1 1 2 3 3 3 3 4 4 4 4 3 4
3 5 5 3 3 3 1 5 7 6 6 7 8 8 8 9 10 10 11 11 10 10 9 9 9 7 7 6 6 5 5 4 3 3 3 2 2 1 0 2 3 4 4 4 4 3 3 3 4
5 2 4 5 2 1 4 5 7 3 1 2 5 6 9 10 10 10 10 10 10 10 11 11 10 8 7 7 6 6 5 5 4 3 3 2 2 1 2 2 3 3 3 4 4 3 3 3 3
4 6 5 4 3 1 5 4 4 5 3 3 5 8 8 8 8 9 9 9 9 9 9 9 9 9 7 7 6 6 5 5 4 4 3 3 2 2 2 2 2 3 3 3 3 2 2 3 3
4 3 4 4 4 4 2 6 5 6 6 6 7 8 8 9 9 9 8 8 8 7 8 8 8 7 7 7 6 5 5 5 4 4 4 3 2 2 3 2 3 2 2 3 3 2 2 3 3
4 5 6 4 2 3 3 6 6 5 6 6 6 6 6 7 8 8 8 7 7 8 8 8 8 8 8 7 6 6 5 5 5 4 4 4 3 3 3 3 3 2 2 2 2 1 2 2 1
Wind_Direction
344 39 85 64 58 57 62 23 85 87 73 75 77 79 86 67 79 117 153 101 104 88 82 94 97 97 96 94 92 89 87 85 83 82 80 78 78 78 75 74 72 69 65 63 59 56 54 51 50
352 69 60 61 80 77 43 25 88 85 127 127 80 69 73 69 67 102 106 113 105 101 95 97 96 97 94 93 91 89 87 85 83 84 81 79 75 73 71 70 67 63 60 58 53 51 48 46 44
24 59 76 70 81 123 132 99 104 90 101 103 79 60 74 88 97 123 137 120 104 98 96 98 97 96 95 93 92 90 88 86 84 83 80 76 72 71 71 68 64 58 54 52 47 44 40 39 40
76 48 56 68 76 58 137 137 122 112 78 61 92 72 62 47 118 134 124 111 104 93 94 101 98 95 94 92 92 90 88 85 83 81 76 72 69 68 66 63 59 54 49 45 41 37 35 36 38
61 74 64 65 61 39 70 116 96 95 84 74 89 88 57 17 95 112 114 110 109 95 90 98 99 95 93 91 89 85 82 81 78 77 71 65 63 61 58 56 53 50 47 43 40 36 36 37 38
55 67 85 100 76 51 55 61 84 89 96 93 90 95 73 68 107 116 111 103 101 96 84 84 94 94 93 91 88 86 80 75 71 68 63 56 52 49 47 47 46 46 44 40 39 39 37 38 38
96 86 107 119 107 82 95 76 98 106 100 102 109 98 107 110 115 113 103 96 85 78 73 67 72 76 79 81 82 80 74 64 58 55 50 44 40 39 39 39 38 39 41 41 41 39 38 37 38
114 96 88 105 120 113 118 93 92 102 103 111 105 125 155 162 122 102 86 78 73 66 62 58 58 62 59 56 59 58 55 49 45 41 39 38 33 28 25 23 26 34 38 41 40 41 41 40 42
87 78 121 156 148 137 133 110 87 81 100 80 78 120 139 129 117 106 92 71 67 72 50 52 51 51 55 48 43 41 38 37 36 33 35 35 29 24 22 22 30 35 38 39 37 40 42 43 41
73 107 160 165 153 136 126 114 120 99 88 83 87 92 112 121 127 129 137 144 149 161 154 55 56 50 48 42 39 35 34 36 36 34 36 38 37 34 34 31 32 33 36 37 38 43 44 43 39
77 123 129 96 115 120 114 100 96 117 113 141 138 135 130 129 131 141 154 163 179 189 172 125 98 69 59 48 43 38 40 42 43 41 43 48 44 38 36 32 26 29 32 34 33 37 38 40 40
84 71 107 105 102 106 116 109 96 109 149 142 137 137 138 143 150 161 166 164 161 165 180 154 111 88 68 64 53 50 49 50 48 44 47 55 47 36 31 30 25 27 27 30 31 31 35 38 40
75 85 80 92 89 97 96 94 103 99 111 116 126 135 149 155 159 163 166 160 154 164 172 155 118 108 90 73 62 62 58 60 60 56 51 60 60 42 35 30 30 27 28 30 27 29 33 34 34
95 91 82 76 81 79 98 87 92 119 123 125 137 153 163 163 165 160 165 160 165 171 170 153 123 121 107 91 81 70 66 65 63 55 51 63 67 60 50 36 30 25 26 35 39 36 35 32 38
89 84 66 49 67 86 98 73 100 139 132 139 154 166 171 180 172 176 181 174 174 169 161 149 136 118 109 100 93 81 71 68 60 53 55 63 65 62 60 47 30 20 30 43 47 40 41 40 39
66 69 80 28 69 88 107 138 168 146 143 156 168 175 185 202 196 195 186 171 164 155 151 151 137 122 114 104 96 82 72 67 57 54 57 60 61 62 60 49 29 25 40 42 45 36 41 38 38
54 102 115 86 66 104 116 164 180 160 157 169 178 184 191 205 215 209 189 172 161 155 150 139 124 125 119 103 92 78 70 61 53 53 52 55 59 61 62 51 32 36 45 38 44 42 45 41 32
148 131 122 126 76 115 132 167 166 171 170 183 187 192 198 207 219 203 181 171 155 146 141 135 123 120 113 97 84 68 56 47 46 46 46 53 57 59 62 54 38 40 46 38 40 49 45 43 26
121 118 112 133 148 130 151 177 204 178 177 189 195 201 210 219 224 193 177 162 148 143 144 144 139 139 129 113 105 92 68 31 26 37 45 51 56 57 58 52 42 40 47 41 39 50 48 32 13
105 112 106 73 101 132 140 237 231 190 195 198 198 204 208 207 197 193 181 173 169 166 166 158 157 158 155 141 131 121 115 82 44 25 40 45 51 53 57 56 46 41 48 42 36 44 54 31 25
109 151 153 139 85 71 95 338 266 232 209 209 209 207 205 201 197 196 188 187 176 176 181 175 169 163 154 137 112 89 67 48 31 16 15 23 44 52 55 58 57 49 52 49 38 44 68 59 28
148 167 145 132 107 54 131 235 270 229 224 220 217 209 210 209 199 196 190 188 189 189 179 168 165 158 151 143 141 140 139 140 185 343 5 22 43 49 51 55 59 58 54 50 39 50 60 82 54
172 134 114 103 111 72 64 162 278 226 233 235 223 214 213 206 198 197 195 192 191 182 174 169 158 152 150 152 153 142 136 141 118 68 49 33 30 41 47 54 61 60 56 54 51 52 54 62 79
123 87 68 53 75 29 218 176 269 225 219 228 222 213 210 203 198 197 192 181 181 174 168 164 160 161 155 155 155 154 152 147 132 112 79 31 15 23 38 56 62 63 60 57 55 57 60 59 66
94 100 71 28 23 253 219 196 249 242 224 214 215 212 205 196 191 188 184 185 185 180 177 172 168 171 165 160 165 167 163 161 165 170 165 138 41 9 3 48 58 58 61 67 67 62 56 56 63
156 138 149 172 207 277 217 230 256 261 246 218 209 199 192 194 192 192 193 190 189 185 180 177 178 178 171 170 175 169 165 165 175 180 178 179 188 217 28 69 73 67 69 74 73 65 57 60 63
132 146 154 129 133 320 283 286 301 312 341 191 187 181 192 197 196 196 192 189 188 186 185 184 182 180 177 177 172 168 171 173 180 178 171 180 192 174 115 92 80 73 75 83 82 68 54 60 57
134 141 105 114 136 288 307 292 269 291 282 237 202 203 205 196 194 193 190 189 189 188 183 180 183 184 180 177 178 176 176 177 170 156 164 176 177 131 122 106 93 82 75 83 83 74 60 66 44
127 122 119 118 144 150 280 284 237 246 247 234 226 214 205 197 195 192 191 187 180 173 174 179 183 180 178 180 178 169 172 168 159 161 174 176 168 154 149 140 121 107 90 80 87 78 72 68 38
169 172 152 149 196 167 179 272 277 260 255 228 228 223 209 198 192 186 179 172 172 177 179 182 184 186 187 180 174 174 169 163 164 173 179 169 167 159 153 140 131 126 115 106 113 103 77 85 47
Height
1505 1505 1506 1507 1510 1520 1525 1523 1520 1521 1523 1525 1525 1526 1528 1533 1536 1543 1540 1538 1539 1539 1540 1540 1541 1542 1542 1542 1543 1543 1543 1543 1543 1543 1543 1543 1543 1543 1543 1543 1543 1543 1543 1542 1542 1542 1542 1542 1542
1505 1505 1507 1508 1517 1530 1529 1523 1522 1522 1524 1525 1526 1528 1530 1534 1536 1538 1539 1539 1540 1541 1542 1542 1543 1543 1543 1544 1544 1544 1544 1545 1545 1544 1544 1544 1544 1544 1543 1543 1543 1543 1543 1543 1543 1543 1542 1542 1542
1505 1506 1508 1511 1521 1529 1528 1523 1523 1524 1525 1526 1528 1531 1533 1536 1538 1539 1540 1541 1542 1543 1543 1544 1544 1545 1545 1545 1546 1546 1546 1546 1546 1546 1545 1545 1545 1544 1544 1544 1544 1544 1544 1543 1543 1543 1543 1543 1543
1506 1508 1509 1517 1524 1523 1522 1523 1523 1525 1526 1527 1529 1533 1536 1539 1540 1541 1542 1543 1544 1544 1545 1546 1546 1546 1547 1547 1547 1548 1548 1548 1547 1547 1547 1546 1546 1546 1545 1545 1544 1544 1544 1544 1544 1543 1543 1543 1543
1507 1508 1515 1524 1525 1524 1523 1523 1524 1525 1527 1530 1531 1535 1539 1541 1542 1543 1543 1545 1546 1546 1547 1547 1548 1548 1549 1549 1549 1549 1549 1549 1549 1549 1549 1548 1548 1547 1547 1546 1546 1545 1545 1545 1544 1544 1544 1544 1544
1508 1509 1524 1530 1527 1525 1525 1525 1526 1527 1530 1532 1534 1537 1541 1543 1544 1545 1546 1547 1548 1549 1549 1550 1550 1551 1551 1551 1551 1552 1552 1552 1551 1551 1550 1550 1549 1549 1548 1547 1547 1546 1546 1546 1545 1545 1545 1545 1545
1509 1515 1524 1527 1529 1528 1527 1527 1528 1529 1531 1534 1535 1538 1542 1544 1546 1547 1548 1549 1550 1551 1552 1552 1552 1552 1553 1553 1553 1554 1554 1554 1553 1553 1552 1552 1551 1550 1550 1549 1548 1547 1547 1546 1546 1546 1546 1546 1546
1509 1515 1524 1527 1528 1528 1527 1528 1530 1531 1533 1535 1537 1539 1542 1545 1547 1548 1550 1551 1552 1553 1554 1554 1554 1555 1555 1555 1555 1555 1555 1555 1555 1554 1554 1553 1553 1552 1551 1550 1549 1549 1548 1547 1547 1547 1547 1547 1547
1510 1519 1527 1526 1527 1527 1527 1528 1531 1533 1534 1536 1537 1539 1543 1546 1548 1550 1551 1553 1554 1555 1556 1556 1556 1557 1557 1557 1557 1557 1557 1557 1557 1556 1556 1555 1554 1553 1552 1552 1551 1550 1549 1549 1548 1548 1548 1548 1547
1511 1522 1523 1522 1522 1524 1527 1529 1531 1534 1536 1538 1539 1542 1544 1547 1549 1551 1553 1554 1555 1556 1557 1558 1558 1558 1558 1559 1559 1559 1559 1558 1558 1558 1557 1556 1556 1555 1554 1553 1552 1551 1550 1550 1549 1549 1549 1548 1548
1513 1519 1520 1521 1522 1524 1527 1530 1532 1534 1537 1539 1540 1543 1546 1548 1551 1552 1554 1556 1557 1558 1559 1560 1560 1560 1560 1560 1561 1561 1560 1560 1560 1559 1558 1558 1557 1556 1555 1554 1553 1552 1551 1551 1550 1550 1549 1549 1549
1515 1519 1519 1522 1523 1525 1528 1530 1533 1535 1538 1540 1542 1544 1547 1550 1552 1554 1555 1557 1558 1559 1560 1561 1561 1562 1562 1562 1562 1562 1562 1562 1561 1560 1560 1559 1558 1557 1556 1555 1554 1553 1552 1552 1551 1550 1550 1550 1549
1517 1521 1522 1523 1525 1527 1529 1532 1534 1537 1540 1542 1544 1547 1549 1551 1553 1555 1557 1558 1559 1561 1562 1562 1563 1563 1564 1564 1564 1564 1564 1563 1563 1562 1561 1560 1559 1558 1557 1556 1555 1554 1553 1552 1552 1551 1551 1550 1550
1520 1522 1524 1526 1527 1530 1532 1535 1537 1540 1542 1544 1546 1549 1551 1552 1554 1556 1558 1559 1560 1562 1563 1563 1564 1565 1565 1565 1565 1565 1565 1564 1564 1563 1562 1561 1560 1559 1558 1557 1556 1555 1554 1553 1553 1552 1552 1552 1551
1522 1525 1528 1530 1530 1533 1534 1540 1540 1541 1543 1546 1548 1550 1552 1554 1556 1557 1559 1560 1561 1562 1563 1564 1565 1566 1566 1567 1567 1566 1566 1566 1565 1564 1564 1563 1562 1561 1559 1558 1557 1556 1555 1555 1554 1553 1553 1552 1552
1525 1531 1537 1534 1533 1535 1539 1546 1542 1543 1545 1547 1549 1551 1553 1555 1557 1558 1560 1561 1562 1563 1564 1565 1566 1567 1567 1568 1568 1568 1567 1567 1566 1566 1565 1564 1563 1562 1561 1560 1558 1557 1557 1556 1555 1554 1554 1553 1553
1533 1540 1540 1538 1535 1536 1539 1545 1542 1543 1545 1547 1549 1551 1553 1555 1557 1559 1560 1562 1563 1564 1565 1566 1567 1568 1568 1569 1569 1569 1569 1568 1568 1567 1567 1566 1565 1563 1562 1561 1560 1559 1558 1557 1556 1555 1555 1554 1554
1539 1540 1541 1541 1537 1538 1541 1543 1542 1543 1545 1547 1549 1551 1553 1555 1556 1558 1560 1562 1564 1565 1566 1567 1568 1569 1569 1570 1570 1570 1570 1569 1569 1568 1568 1567 1566 1565 1564 1562 1561 1560 1559 1558 1557 1556 1556 1555 1555
1533 1537 1541 1541 1537 1539 1543 1543 1543 1543 1545 1547 1548 1550 1552 1554 1556 1558 1560 1562 1564 1565 1566 1567 1568 1569 1570 1570 1570 1570 1570 1570 1570 1569 1569 1568 1567 1566 1565 1563 1562 1561 1560 1559 1558 1558 1557 1556 1556
1533 1539 1542 1541 1538 1540 1544 1545 1542 1542 1543 1544 1546 1548 1550 1552 1555 1557 1559 1561 1563 1565 1566 1567 1568 1569 1570 1571 1571 1571 1571 1571 1571 1570 1570 1569 1568 1567 1566 1565 1563 1562 1561 1560 1559 1559 1558 1557 1557
1536 1539 1541 1542 1541 1542 1545 1548 1544 1542 1542 1543 1545 1546 1548 1550 1553 1555 1557 1560 1562 1564 1565 1567 1568 1569 1570 1571 1571 1571 1571 1571 1571 1571 1570 1570 1569 1568 1567 1566 1565 1563 1562 1561 1560 1560 1559 1558 1558
1540 1535 1537 1539 1547 1553 1549 1561 1547 1542 1542 1541 1542 1543 1545 1548 1550 1553 1555 1558 1560 1563 1565 1567 1568 1569 1570 1571 1571 1571 1572 1572 1572 1571 1571 1570 1569 1569 1568 1567 1566 1565 1563 1562 1561 1561 1560 1559 1559
1536 1534 1536 1540 1547 1553 1552 1558 1551 1542 1543 1539 1537 1539 1541 1544 1547 1550 1553 1556 1559 1562 1564 1566 1567 1568 1569 1570 1571 1572 1572 1572 1572 1572 1571 1571 1570 1570 1569 1568 1567 1566 1564 1563 1562 1561 1561 1560 1559
1533 1537 1541 1546 1551 1561 1553 1558 1555 1543 1537 1533 1533 1534 1537 1541 1544 1548 1551 1554 1557 1560 1562 1564 1566 1567 1568 1570 1570 1571 1572 1572 1572 1572 1571 1571 1571 1570 1569 1568 1567 1566 1565 1564 1563 1562 1561 1561 1560
1536 1546 1558 1562 1565 1562 1550 1554 1548 1530 1526 1526 1528 1530 1533 1537 1541 1544 1548 1551 1554 1557 1560 1562 1564 1566 1567 1568 1570 1571 1571 1572 1572 1572 1572 1571 1571 1570 1570 1569 1568 1567 1566 1565 1564 1563 1562 1561 1561
1538 1543 1558 1566 1567 1561 1552 1553 1537 1523 1521 1522 1524 1527 1530 1534 1537 1541 1544 1548 1551 1555 1558 1560 1562 1564 1566 1567 1569 1570 1570 1571 1571 1571 1571 1571 1571 1570 1570 1569 1568 1568 1567 1566 1565 1564 1563 1562 1561
1539 1543 1544 1554 1557 1561 1556 1546 1531 1521 1520 1520 1522 1524 1527 1530 1534 1538 1542 1545 1549 1552 1555 1558 1561 1563 1564 1566 1567 1568 1569 1570 1570 1571 1571 1571 1570 1570 1570 1569 1568 1568 1567 1566 1565 1564 1563 1563 1562
1533 1538 1548 1554 1562 1566 1556 1549 1541 1526 1523 1521 1521 1522 1524 1528 1531 1535 1539 1542 1546 1549 1553 1556 1559 1561 1563 1564 1566 1567 1568 1569 1569 1570 1570 1570 1570 1569 1569 1569 1568 1567 1567 1566 1565 1564 1563 1563 1562
1536 1540 1544 1552 1554 1563 1563 1552 1526 1523 1520 1520 1519 1520 1522 1525 1528 1532 1536 1540 1543 1547 1550 1553 1556 1558 1561 1562 1564 1565 1567 1567 1568 1568 1568 1568 1568 1568 1568 1568 1567 1567 1566 1565 1565 1564 1563 1562 1562
1529 1533 1541 1550 1554 1556 1560 1550 1519 1518 1517 1517 1517 1519 1521 1523 1526 1530 1534 1537 1541 1544 1547 1550 1553 1556 1558 1560 1562 1563 1565 1566 1566 1567 1567 1567 1567 1567 1567 1567 1566 1566 1565 1565 1564 1563 1562 1562 1561